Location: Zagreb
(45.8000°N, 16.0000°E)
Time: 03:55:05
(UTC+01:00)

A-11 Canister half - Visible Passes

Search period start: 23 January 2022 00:00
Search period end: 02 February 2022 00:00
Orbit: 1516 x 1684 km, 47.2° (Epoch: 22 January)

Date Brightness Start Highest point End Pass type
(mag) Time Alt. Az. Time Alt. Az. Time Alt. Az.
23 Jan 8.9 19:04:22 10° WSW 19:13:48 87° N 19:17:25 44° ENE visible
23 Jan 9.6 21:09:38 10° WNW 21:15:36 46° WNW 21:15:36 46° WNW visible
24 Jan 8.9 18:41:25 10° WSW 18:50:52 88° NNW 18:55:48 33° ENE visible
24 Jan 9.2 20:46:42 10° WNW 20:54:00 60° WNW 20:54:00 60° WNW visible
24 Jan 11.1 22:51:44 10° WNW 22:52:12 12° WNW 22:52:12 12° WNW visible
25 Jan 8.9 18:18:29 10° WSW 18:27:58 89° NNW 18:34:12 24° ENE visible
25 Jan 8.9 20:23:47 10° W 20:32:24 78° WNW 20:32:24 78° WNW visible
25 Jan 10.8 22:28:49 10° WNW 22:30:36 17° WNW 22:30:36 17° WNW visible
26 Jan 9.0 17:55:33 10° WSW 18:05:03 90° SSE 18:12:36 17° ENE visible
26 Jan 8.7 20:00:50 10° W 20:10:14 85° N 20:10:48 80° ENE visible
26 Jan 10.5 22:05:54 10° WNW 22:09:00 24° WNW 22:09:00 24° WNW visible
27 Jan 9.0 17:32:36 10° WSW 17:42:08 88° SSE 17:51:00 12° ENE visible
27 Jan 8.8 19:37:53 10° W 19:47:18 85° N 19:49:12 62° E visible
27 Jan 10.2 21:42:58 10° WNW 21:47:24 32° W 21:47:24 32° W visible
28 Jan 9.1 17:09:40 10° WSW 17:19:13 86° SSE 17:28:32 10° ENE visible
28 Jan 8.8 19:14:56 10° W 19:24:23 84° N 19:27:37 47° E visible
28 Jan 9.8 21:20:03 10° WNW 21:25:50 42° W 21:25:50 42° W visible
29 Jan 8.9 18:52:00 10° W 19:01:27 83° N 19:06:04 35° E visible
29 Jan 9.4 20:57:07 10° WNW 21:04:17 54° W 21:04:17 54° W visible
30 Jan 8.9 18:29:02 10° W 18:38:32 83° N 18:44:32 26° E visible
30 Jan 9.0 20:34:11 10° WNW 20:42:45 66° SW 20:42:45 66° SW visible
30 Jan 11.0 22:39:51 10° W 22:40:58 13° W 22:40:58 13° W visible
31 Jan 9.0 18:06:06 10° W 18:15:36 82° N 18:23:03 18° E visible
31 Jan 8.9 20:11:15 10° WNW 20:20:32 70° SSW 20:21:16 68° S visible
31 Jan 10.7 22:16:49 10° W 22:19:29 18° W 22:19:29 18° W visible
01 Feb 9.0 17:43:07 10° W 17:52:40 82° N 18:01:36 11° E visible
01 Feb 8.9 19:48:20 10° WNW 19:57:38 73° SSW 19:59:48 56° SE visible
01 Feb 10.5 21:53:48 10° WNW 21:58:02 24° W 21:58:02 24° W visible
